{"data":{"norad_id":57498,"intl_designator":"2023-113D","name":"STARLINK-30203","alt_names":[],"object_type":"PAYLOAD","status":"ACTIVE","operator":null,"country":"US","launch_date":"2023-08-07","launch_site_code":"AFETR","launch_vehicle":null,"mission":null,"orbit_class":"UNKNOWN","rcs_meters":null,"size_class":null,"mass_kg":null,"dimensions":null,"purposes":["comms"],"wikipedia_slug":null,"has_3d_model":false,"image_url":null,"decayed_at":null,"tle_current":{"epoch":"2026-09-20T07:36:12.199104Z","epoch_age_seconds":143807,"freshness":"FRESH","line1":"1 57498U 23113D   26263.31680786 -.00000350  00000+0 -31757-5 0  9998","line2":"2 57498  43.0063 356.6871 0001914 268.8422  91.2210 15.27574367173467","mean_motion":15.27574367,"eccentricity":0.0001914,"inclination_deg":43.0063,"raan_deg":356.6871,"arg_perigee_deg":268.8422,"mean_anomaly_deg":91.221,"bstar":-3.1757e-6,"rev_number":17346,"period_min":94.267096326578,"perigee_km":481.75272907277,"apogee_km":484.37919756713,"semimajor_km":6861.2029633199,"source":"CELESTRAK","updated_at":"2026-09-21T09:00:33.632641Z"}}}